When you browse on this site, cookies collect data to enhance your experience and personalize the content and advertising you see.
Visit our Privacy Policy to learn more. By continuing to use the site, you agree to this use of cookies and data.
  • In Czech Republic
  • List of Countries
  • For 7 days
  • Water Temperature
  • Satellite Maps
  • Weather Map
  • Weather Widgets
  • user-avatar
    Login

    Hourly Weather Vancouver

    Today, 18 April, Thursday

    Time Temperature Precipitation Wind Pressure Humidity
    00:00 +10°C° 0.7 mm 2 mps 764 mmHg 90%
    01:00 +10°C° 0.7 mm 3 mps 763 mmHg 92%
    02:00 +10°C° 1.2 mm 3 mps 763 mmHg 92%
    03:00 +10°C° 1.2 mm 3 mps 763 mmHg 93%
    04:00 +10°C° 0 mm 2 mps 762 mmHg 94%
    05:00 +10°C° 1.8 mm 3 mps 762 mmHg 94%
    06:00 +10°C° 1.8 mm 3 mps 762 mmHg 94%
    07:00 +10°C° 1.8 mm 3 mps 762 mmHg 94%
    08:00 +10°C° 1.5 mm 3 mps 761 mmHg 93%
    09:00 +10°C° 1.5 mm 3 mps 761 mmHg 93%
    10:00 +10°C° 1.5 mm 3 mps 760 mmHg 93%
    11:00 +10°C° 2.7 mm 3 mps 760 mmHg 93%
    12:00 +10°C° 2.7 mm 3 mps 759 mmHg 93%
    13:00 +10°C° 2.7 mm 3 mps 759 mmHg 94%
    14:00 +10°C° 1.5 mm 3 mps 758 mmHg 93%
    15:00 +10°C° 1.5 mm 3 mps 758 mmHg 93%
    16:00 +10°C° 1.5 mm 3 mps 757 mmHg 93%
    17:00 +10°C° 2.3 mm 3 mps 757 mmHg 94%
    18:00 +10°C° 2.3 mm 2 mps 757 mmHg 95%
    19:00 +10°C° 2.3 mm 2 mps 756 mmHg 95%
    20:00 +10°C° 0.8 mm 2 mps 756 mmHg 96%
    21:00 +12°C° 0.8 mm 2 mps 756 mmHg 96%
    22:00 +12°C° 0.8 mm 2 mps 756 mmHg 97%
    23:00 +12°C° 0.7 mm 2 mps 756 mmHg 97%

    Tomorrow, 19 April, Friday

    Time Temperature Precipitation Wind Pressure Humidity
    00:00 +12°C° 0.7 mm 2 mps 755 mmHg 98%
    01:00 +11°C° 0.7 mm 3 mps 755 mmHg 98%
    02:00 +11°C° 0.7 mm 3 mps 755 mmHg 98%
    03:00 +11°C° 0.7 mm 3 mps 755 mmHg 98%
    04:00 +11°C° 0.7 mm 3 mps 754 mmHg 98%
    05:00 +11°C° 0.9 mm 3 mps 754 mmHg 98%
    06:00 +12°C° 0.9 mm 2 mps 754 mmHg 97%
    07:00 +10°C° 0.9 mm 2 mps 755 mmHg 97%
    08:00 +11°C° 0.2 mm 3 mps 755 mmHg 95%
    09:00 +11°C° 0.2 mm 3 mps 755 mmHg 92%
    10:00 +11°C° 0.2 mm 3 mps 756 mmHg 90%
    11:00 +12°C° 0 mm 3 mps 756 mmHg 80%
    12:00 +13°C° 0 mm 3 mps 756 mmHg 69%
    13:00 +14°C° 0 mm 3 mps 756 mmHg 58%
    14:00 +14°C° 0 mm 3 mps 756 mmHg 55%
    15:00 +14°C° 0 mm 3 mps 756 mmHg 51%
    16:00 +15°C° 0 mm 4 mps 756 mmHg 47%
    17:00 +13°C° 0 mm 3 mps 756 mmHg 53%
    18:00 +11°C° 0 mm 3 mps 757 mmHg 59%
    19:00 +10°C° 0 mm 3 mps 757 mmHg 65%
    20:00 +9°C° 0 mm 3 mps 757 mmHg 68%
    21:00 +8°C° 0 mm 2 mps 758 mmHg 72%
    22:00 +7°C° 0 mm 2 mps 759 mmHg 76%
    23:00 +7°C° 0 mm 2 mps 759 mmHg 77%

    Day after tomorrow, 20 April, Saturday

    Time Temperature Precipitation Wind Pressure Humidity
    00:00 +7°C° 0 mm 2 mps 759 mmHg 79%
    01:00 +6°C° 0 mm 2 mps 759 mmHg 81%
    02:00 +6°C° 0 mm 2 mps 759 mmHg 82%
    03:00 +6°C° 0 mm 2 mps 760 mmHg 82%
    04:00 +6°C° 0 mm 2 mps 760 mmHg 83%
    05:00 +7°C° 0 mm 2 mps 760 mmHg 78%
    06:00 +8°C° 0 mm 2 mps 760 mmHg 74%
    07:00 +9°C° 0 mm 2 mps 760 mmHg 70%
    08:00 +11°C° 0 mm 3 mps 760 mmHg 63%
    09:00 +13°C° 0 mm 3 mps 760 mmHg 57%
    10:00 +16°C° 0 mm 3 mps 759 mmHg 51%
    11:00 +16°C° 0 mm 3 mps 759 mmHg 50%
    12:00 +17°C° 0 mm 3 mps 759 mmHg 48%
    13:00 +18°C° 0 mm 3 mps 758 mmHg 46%
    14:00 +17°C° 0 mm 3 mps 758 mmHg 47%
    15:00 +17°C° 0 mm 3 mps 758 mmHg 47%
    16:00 +17°C° 0 mm 3 mps 758 mmHg 47%
    17:00 +16°C° 0 mm 2 mps 758 mmHg 51%
    18:00 +14°C° 0 mm 2 mps 758 mmHg 56%
    19:00 +13°C° 0 mm 1 mps 759 mmHg 61%
    20:00 +12°C° 0 mm 1 mps 759 mmHg 63%
    21:00 +11°C° 0 mm 1 mps 760 mmHg 65%
    22:00 +11°C° 0 mm 1 mps 760 mmHg 66%
    23:00 +10°C° 0 mm 1 mps 760 mmHg 69%

    21 April, Sunday

    Time Temperature Precipitation Wind Pressure Humidity
    00:00 +10°C° 0 mm 1 mps 761 mmHg 71%
    01:00 +9°C° 0 mm 1 mps 761 mmHg 73%
    02:00 +9°C° 0 mm 1 mps 761 mmHg 75%
    03:00 +9°C° 0 mm 1 mps 761 mmHg 77%
    04:00 +8°C° 0 mm 1 mps 761 mmHg 79%
    05:00 +9°C° 0 mm 1 mps 761 mmHg 76%
    06:00 +10°C° 0 mm 1 mps 761 mmHg 73%
    07:00 +11°C° 0 mm 1 mps 761 mmHg 69%
    08:00 +13°C° 0 mm 1 mps 761 mmHg 63%
    09:00 +14°C° 0 mm 1 mps 761 mmHg 56%
    10:00 +16°C° 0 mm 2 mps 761 mmHg 50%
    11:00 +16°C° 0 mm 2 mps 761 mmHg 48%
    12:00 +17°C° 0 mm 2 mps 760 mmHg 46%
    13:00 +18°C° 0 mm 2 mps 760 mmHg 44%
    14:00 +18°C° 0 mm 2 mps 760 mmHg 43%
    15:00 +18°C° 0 mm 2 mps 760 mmHg 42%
    16:00 +18°C° 0 mm 2 mps 760 mmHg 41%
    17:00 +16°C° 0 mm 2 mps 760 mmHg 47%
    18:00 +14°C° 0 mm 1 mps 760 mmHg 53%
    19:00 +13°C° 0 mm 1 mps 761 mmHg 59%
    20:00 +12°C° 0 mm 2 mps 761 mmHg 61%
    21:00 +12°C° 0 mm 2 mps 762 mmHg 63%
    22:00 +10°C° 0 mm 2 mps 762 mmHg 64%
    23:00 +10°C° 0 mm 2 mps 762 mmHg 64%

    22 April, Monday

    Time Temperature Precipitation Wind Pressure Humidity
    00:00 +9°C° 0 mm 2 mps 762 mmHg 65%
    01:00 +9°C° 0 mm 2 mps 762 mmHg 65%
    02:00 +9°C° 0 mm 2 mps 762 mmHg 64%
    03:00 +9°C° 0 mm 2 mps 762 mmHg 63%
    04:00 +9°C° 0 mm 2 mps 763 mmHg 62%
    05:00 +9°C° 0 mm 3 mps 762 mmHg 61%
    06:00 +9°C° 0 mm 3 mps 762 mmHg 59%
    07:00 +9°C° 0 mm 3 mps 762 mmHg 58%
    08:00 +10°C° 0 mm 3 mps 762 mmHg 60%
    09:00 +10°C° 0 mm 2 mps 762 mmHg 63%
    10:00 +12°C° 0 mm 2 mps 762 mmHg 65%
    11:00 +10°C° 0.5 mm 2 mps 762 mmHg 68%
    12:00 +10°C° 0.5 mm 2 mps 762 mmHg 70%
    13:00 +10°C° 0.5 mm 2 mps 762 mmHg 73%
    14:00 +10°C° 0.2 mm 2 mps 762 mmHg 72%
    15:00 +10°C° 0.2 mm 2 mps 762 mmHg 71%
    16:00 +9°C° 0.2 mm 2 mps 762 mmHg 70%
    17:00 +9°C° 0.1 mm 2 mps 762 mmHg 72%
    18:00 +9°C° 0.1 mm 2 mps 762 mmHg 75%
    19:00 +9°C° 0.1 mm 2 mps 762 mmHg 78%
    20:00 +9°C° 0 mm 2 mps 763 mmHg 80%
    21:00 +9°C° 0 mm 2 mps 763 mmHg 82%
    22:00 +9°C° 0 mm 2 mps 763 mmHg 84%
    23:00 +10°C° 0 mm 1 mps 763 mmHg 86%

    23 April, Tuesday

    Time Temperature Precipitation Wind Pressure Humidity
    00:00 +10°C° 0 mm 1 mps 763 mmHg 87%
    01:00 +10°C° 0 mm 1 mps 763 mmHg 89%
    02:00 +9°C° 0 mm 1 mps 763 mmHg 91%
    03:00 +9°C° 0 mm 1 mps 763 mmHg 92%
    04:00 +9°C° 0 mm 1 mps 763 mmHg 93%
    05:00 +10°C° 0 mm 1 mps 763 mmHg 91%
    06:00 +11°C° 0 mm 1 mps 763 mmHg 88%
    07:00 +11°C° 0 mm 1 mps 763 mmHg 86%
    08:00 +13°C° 0 mm 1 mps 763 mmHg 80%
    09:00 +14°C° 0 mm 1 mps 763 mmHg 74%
    10:00 +15°C° 0 mm 1 mps 763 mmHg 68%
    11:00 +16°C° 0 mm 1 mps 762 mmHg 67%
    12:00 +16°C° 0 mm 1 mps 762 mmHg 66%
    13:00 +18°C° 0 mm 1 mps 761 mmHg 65%
    14:00 +16°C° 0.1 mm 1 mps 761 mmHg 69%
    15:00 +15°C° 0.1 mm 1 mps 761 mmHg 74%
    16:00 +15°C° 0.1 mm 1 mps 760 mmHg 78%
    17:00 +14°C° 0.4 mm 1 mps 760 mmHg 80%
    18:00 +13°C° 0.4 mm 2 mps 760 mmHg 83%
    19:00 +13°C° 0.4 mm 2 mps 760 mmHg 85%
    20:00 +13°C° 0.8 mm 2 mps 760 mmHg 87%
    21:00 +13°C° 0.8 mm 2 mps 759 mmHg 89%
    22:00 +13°C° 0.8 mm 2 mps 759 mmHg 90%
    23:00 +13°C° 3.2 mm 2 mps 758 mmHg 92%
    Show more